Regional Weather Roundup
Issued by NWS

Home | Current Version | Previous Version | Text Only | Print | Product List | Glossary On
Versions: 1 2 3 4 5 6 7 8 9 10 11 12 13 14 15 16 17 18 19 20 21 22 23 24 25 26 27 28 29 30 31 32 33 34 35 36 37 38 39 40 41 42 43 44 45 46 47 48
000
ASUS46 KPQR 290910
RWROR

OREGON REGIONAL WEATHER ROUNDUP
NATIONAL WEATHER SERVICE PORTLAND OR
200 AM PDT SAT AUG 29 2015

NOTE: "FAIR" INDICATES FEW OR NO CLOUDS BELOW 12,000 FEET WITH
NO SIGNIFICANT WEATHER AND/OR OBSTRUCTIONS TO VISIBILITY.

ORZ001>013-291000-
NORTHWEST OREGON


CITY           SKY/WX    TMP DP  RH WIND       PRES   REMARKS
ASTORIA        CLOUDY    67  64  90 CALM      29.55F
NEWPORT        RAIN      63  59  88 S21G29    29.67S
PORTLAND       CLOUDY    68  63  84 NW7       29.57F
VANCOUVER WA   LGT RAIN  68  61  78 NW6       29.57F
SCAPPOOSE      LGT RAIN  65  62  90 CALM      29.56F
HILLSBORO      LGT RAIN  66  62  87 N3        29.55F
AURORA         CLOUDY    66  62  87 CALM      29.57F
MCMINNVILLE    CLOUDY    66  60  81 W7        29.59F
SALEM          CLOUDY    69  61  75 W5        29.56F
CORVALLIS      CLOUDY    64  61  88 CALM      29.61F
EUGENE         CLOUDY    68  61  78 W6        29.61F
$$

ORZ021-028-291000-
SOUTHWEST OREGON


CITY           SKY/WX    TMP DP  RH WIND       PRES   REMARKS
NORTH BEND     CLOUDY    66  64  94 SW9G16    29.67R
BROOKINGS      HVY RAIN  62  62 100 S15G24    29.78S VSB 1/4
ROSEBURG       CLOUDY    72  56  57 SE3       29.63S
SEXTON SUMMIT  CLOUDY    60  49  66 S14G24    29.78S
MEDFORD        CLOUDY    71  52  50 W5        29.66F
$$

ORZ014>016-041-291000-
COLUMBIA GORGE


CITY           SKY/WX    TMP DP  RH WIND       PRES   REMARKS
TROUTDALE      CLOUDY    69  61  75 CALM      29.56F
THE DALLES     CLOUDY    68  54  60 CALM      29.58F
$$

ORZ029>031-041-044-049-050-061>064-502-503-505>511-291000-
EASTERN OREGON


CITY           SKY/WX    TMP DP  RH WIND       PRES   REMARKS
REDMOND        CLOUDY    60  44  55 SE6       29.73F
BEND           CLOUDY    59  45  58 CALM      29.75F
PRINEVILLE     CLOUDY    63  45  51 CALM      29.74F
KLAMATH FALLS  CLOUDY    70  43  37 S18G33    29.85F
LAKEVIEW       CLOUDY    66  37  34 S14       29.94F
HERMISTON      MOCLDY    63  52  67 CALM      29.60F
PENDLETON      MOCLDY    65  43  44 E3        29.63F
JOHN DAY       CLOUDY    72  39  30 CALM      29.82F
MEACHAM        CLOUDY    70  40  33 CALM      29.79F
LA GRANDE      CLOUDY    63  39  42 SE3       29.77F
BAKER CITY     CLOUDY    57  47  69 E3        29.82F
BURNS          CLOUDY    60  36  40 NE3       29.90S
ROME             N/A     71  32  23 SE9       29.91S
ONTARIO        MOCLDY    61  47  59 CALM      29.79S
$$



USA.gov is the U.S. government's official web portal to all federal, state and local government web resources and services.